This is the latest recevied weather packets stored in our database for station/object N2VSB-13. If no packets are shown the sender has not sent any weather packets the latest 10 day(s).
| Time | Temp. | Humidity | Pressure | Rain* | Wind** | Luminosity | Snow |
|---|---|---|---|---|---|---|---|
| 1777484141 | 18.89° C | 56% | 1010.9 hPa | 0 mm | - | 450 W/m² | - |
| 1777482918 | 17.78° C | 60% | 1011.1 hPa | 0 mm | - | 487 W/m² | - |
| 1777476920 | 16.67° C | 58% | 1012.7 hPa | 0 mm | - | 407 W/m² | - |
| 1777476317 | 16.11° C | 59% | 1012.6 hPa | 0 mm | - | 361 W/m² | - |
| 1777475117 | 16.67° C | 57% | 1012.5 hPa | 0 mm | - | 392 W/m² | - |
| 1777474521 | 16.11° C | 57% | 1012.6 hPa | 0 mm | - | 550 W/m² | - |
| 1777469119 | 12.78° C | 64% | 1014 hPa | 0 mm | - | 205 W/m² | - |
| 1777464920 | 12.22° C | 65% | 1015.3 hPa | 0 mm | - | 64 W/m² | - |
| 1777460721 | 11.67° C | 66% | 1015.5 hPa | 0 mm | - | 18 W/m² | - |
| 1777458922 | 11.67° C | 67% | 1015.4 hPa | 0 mm | - | 7 W/m² | - |
| 1777458322 | 11.67° C | 67% | 1015.3 hPa | 0 mm | - | 5 W/m² | - |
| 1777456541 | 11.67° C | 66% | 1015 hPa | 0 mm | - | 1 W/m² | - |
| 1777454717 | 11.67° C | 67% | 1015.1 hPa | 0 mm | - | 0 W/m² | - |
| 1777453521 | 11.67° C | 65% | 1015 hPa | 0 mm | - | 0 W/m² | - |
| 1777452318 | 11.11° C | 66% | 1014.7 hPa | 0 mm | - | 0 W/m² | - |
| 1777446940 | 12.78° C | 57% | 1014.7 hPa | 0 mm | - | 0 W/m² | - |
| 1777440319 | 13.89° C | 50% | 1016.1 hPa | 0 mm | - | 0 W/m² | - |
| 1777439719 | 14.44° C | 50% | 1016 hPa | 0 mm | - | 0 W/m² | - |
| 1777436120 | 15° C | 49% | 1016.1 hPa | 0 mm | - | 0 W/m² | - |
| 1777434920 | 15° C | 51% | 1015.6 hPa | 0 mm | - | 0 W/m² | - |
| 1777431318 | 16.11° C | 49% | 1015.7 hPa | 0 mm | - | 0 W/m² | - |
| 1777430718 | 16.11° C | 48% | 1015.8 hPa | 0 mm | - | 0 W/m² | - |
| 1777428956 | 16.11° C | 48% | 1015.9 hPa | 0 mm | - | 0 W/m² | - |
| 1777428336 | 16.11° C | 49% | 1015.9 hPa | 0 mm | - | 0 W/m² | - |
| 1777424117 | 16.67° C | 46% | 1015.7 hPa | 0 mm | - | 0 W/m² | - |
* Rain latest hour (hover to see other rain measurements)
** Current wind speed in m/s (hover to see current wind gust speed)